Year,Month,Day,Hour,Minute,Value (Times are PST for insolation in W/m^2)
2013,03,07,00,00,0.00
2013,03,07,00,01,0.00
2013,03,07,00,02,0.00
2013,03,07,00,03,0.00
2013,03,07,00,04,0.00
2013,03,07,00,05,0.00
2013,03,07,00,06,0.00
2013,03,07,00,07,0.00
2013,03,07,00,08,0.00
2013,03,07,00,09,0.00
2013,03,07,00,10,0.00
2013,03,07,00,11,0.00
2013,03,07,00,12,0.00
2013,03,07,00,13,0.00
2013,03,07,00,14,0.00
2013,03,07,00,15,0.00
2013,03,07,00,16,0.00
2013,03,07,00,17,0.00
2013,03,07,00,18,0.00
2013,03,07,00,19,0.00
2013,03,07,00,20,0.00
2013,03,07,00,21,0.00
2013,03,07,00,22,0.00
2013,03,07,00,23,0.00
2013,03,07,00,24,0.00
2013,03,07,00,25,0.00
2013,03,07,00,26,0.00
2013,03,07,00,27,0.00
2013,03,07,00,28,0.00
2013,03,07,00,29,0.00
2013,03,07,00,30,0.00
2013,03,07,00,31,0.00
2013,03,07,00,32,0.00
2013,03,07,00,33,0.00
2013,03,07,00,34,0.00
2013,03,07,00,35,0.00
2013,03,07,00,36,0.00
2013,03,07,00,37,0.00
2013,03,07,00,38,0.00
2013,03,07,00,39,0.00
2013,03,07,00,40,0.00
2013,03,07,00,41,0.00
2013,03,07,00,42,0.00
2013,03,07,00,43,0.00
2013,03,07,00,44,0.00
2013,03,07,00,45,0.00
2013,03,07,00,46,0.00
2013,03,07,00,47,0.00
2013,03,07,00,48,0.00
2013,03,07,00,49,0.00
2013,03,07,00,50,0.00
2013,03,07,00,51,0.00
2013,03,07,00,52,0.00
2013,03,07,00,53,0.00
2013,03,07,00,54,0.00
2013,03,07,00,55,0.00
2013,03,07,00,56,0.00
2013,03,07,00,57,0.00
2013,03,07,00,58,0.00
2013,03,07,00,59,0.00
2013,03,07,01,00,0.00
2013,03,07,01,01,0.00
2013,03,07,01,02,0.00
2013,03,07,01,03,0.00
2013,03,07,01,04,0.00
2013,03,07,01,05,0.00
2013,03,07,01,06,0.00
2013,03,07,01,07,0.00
2013,03,07,01,08,0.00
2013,03,07,01,09,0.00
2013,03,07,01,10,0.00
2013,03,07,01,11,0.00
2013,03,07,01,12,0.00
2013,03,07,01,13,0.00
2013,03,07,01,14,0.00
2013,03,07,01,15,0.00
2013,03,07,01,16,0.00
2013,03,07,01,17,0.00
2013,03,07,01,18,0.00
2013,03,07,01,19,0.00
2013,03,07,01,20,0.00
2013,03,07,01,21,0.00
2013,03,07,01,22,0.00
2013,03,07,01,23,0.00
2013,03,07,01,24,0.00
2013,03,07,01,25,0.00
2013,03,07,01,26,0.00
2013,03,07,01,27,0.00
2013,03,07,01,28,0.00
2013,03,07,01,29,0.00
2013,03,07,01,30,0.00
2013,03,07,01,31,0.00
2013,03,07,01,32,0.00
2013,03,07,01,33,0.00
2013,03,07,01,34,0.00
2013,03,07,01,35,0.00
2013,03,07,01,36,0.00
2013,03,07,01,37,0.00
2013,03,07,01,38,0.00
2013,03,07,01,39,0.00
2013,03,07,01,40,0.00
2013,03,07,01,41,0.00
2013,03,07,01,42,0.00
2013,03,07,01,43,0.00
2013,03,07,01,44,0.00
2013,03,07,01,45,0.00
2013,03,07,01,46,0.00
2013,03,07,01,47,0.00
2013,03,07,01,48,0.00
2013,03,07,01,49,0.00
2013,03,07,01,50,0.00
2013,03,07,01,51,0.00
2013,03,07,01,52,0.00
2013,03,07,01,53,0.00
2013,03,07,01,54,0.00
2013,03,07,01,55,0.00
2013,03,07,01,56,0.00
2013,03,07,01,57,0.00
2013,03,07,01,58,0.00
2013,03,07,01,59,0.00
2013,03,07,02,00,0.00
2013,03,07,02,01,0.00
2013,03,07,02,02,0.00
2013,03,07,02,03,0.00
2013,03,07,02,04,0.00
2013,03,07,02,05,0.00
2013,03,07,02,06,0.00
2013,03,07,02,07,0.00
2013,03,07,02,08,0.00
2013,03,07,02,09,0.00
2013,03,07,02,10,0.00
2013,03,07,02,11,0.00
2013,03,07,02,12,0.00
2013,03,07,02,13,0.00
2013,03,07,02,14,0.00
2013,03,07,02,15,0.00
2013,03,07,02,16,0.00
2013,03,07,02,17,0.00
2013,03,07,02,18,0.00
2013,03,07,02,19,0.00
2013,03,07,02,20,0.00
2013,03,07,02,21,0.00
2013,03,07,02,22,0.00
2013,03,07,02,23,0.00
2013,03,07,02,24,0.00
2013,03,07,02,25,0.00
2013,03,07,02,26,0.00
2013,03,07,02,27,0.00
2013,03,07,02,28,0.00
2013,03,07,02,29,0.00
2013,03,07,02,30,0.00
2013,03,07,02,31,0.00
2013,03,07,02,32,0.00
2013,03,07,02,33,0.00
2013,03,07,02,34,0.00
2013,03,07,02,35,0.00
2013,03,07,02,36,0.00
2013,03,07,02,37,0.00
2013,03,07,02,38,0.00
2013,03,07,02,39,0.00
2013,03,07,02,40,0.00
2013,03,07,02,41,0.00
2013,03,07,02,42,0.00
2013,03,07,02,43,0.00
2013,03,07,02,44,0.00
2013,03,07,02,45,0.00
2013,03,07,02,46,0.00
2013,03,07,02,47,0.00
2013,03,07,02,48,0.00
2013,03,07,02,49,0.00
2013,03,07,02,50,0.00
2013,03,07,02,51,0.00
2013,03,07,02,52,0.00
2013,03,07,02,53,0.00
2013,03,07,02,54,0.00
2013,03,07,02,55,0.00
2013,03,07,02,56,0.00
2013,03,07,02,57,0.00
2013,03,07,02,58,0.00
2013,03,07,02,59,0.00
2013,03,07,03,00,0.00
2013,03,07,03,01,0.00
2013,03,07,03,02,0.00
2013,03,07,03,03,0.00
2013,03,07,03,04,0.00
2013,03,07,03,05,0.00
2013,03,07,03,06,0.00
2013,03,07,03,07,0.00
2013,03,07,03,08,0.00
2013,03,07,03,09,0.00
2013,03,07,03,10,0.00
2013,03,07,03,11,0.00
2013,03,07,03,12,0.00
2013,03,07,03,13,0.00
2013,03,07,03,14,0.00
2013,03,07,03,15,0.00
2013,03,07,03,16,0.00
2013,03,07,03,17,0.00
2013,03,07,03,18,0.00
2013,03,07,03,19,0.00
2013,03,07,03,20,0.00
2013,03,07,03,21,0.00
2013,03,07,03,22,0.00
2013,03,07,03,23,0.00
2013,03,07,03,24,0.00
2013,03,07,03,25,0.00
2013,03,07,03,26,0.00
2013,03,07,03,27,0.00
2013,03,07,03,28,0.00
2013,03,07,03,29,0.00
2013,03,07,03,30,0.00
2013,03,07,03,31,0.00
2013,03,07,03,32,0.00
2013,03,07,03,33,0.00
2013,03,07,03,34,0.00
2013,03,07,03,35,0.00
2013,03,07,03,36,0.00
2013,03,07,03,37,0.00
2013,03,07,03,38,0.00
2013,03,07,03,39,0.00
2013,03,07,03,40,0.00
2013,03,07,03,41,0.00
2013,03,07,03,42,0.00
2013,03,07,03,43,0.00
2013,03,07,03,44,0.00
2013,03,07,03,45,0.00
2013,03,07,03,46,0.00
2013,03,07,03,47,0.00
2013,03,07,03,48,0.00
2013,03,07,03,49,0.00
2013,03,07,03,50,0.00
2013,03,07,03,51,0.00
2013,03,07,03,52,0.00
2013,03,07,03,53,0.00
2013,03,07,03,54,0.00
2013,03,07,03,55,0.00
2013,03,07,03,56,0.00
2013,03,07,03,57,0.00
2013,03,07,03,58,0.00
2013,03,07,03,59,0.00
2013,03,07,04,00,0.00
2013,03,07,04,01,0.00
2013,03,07,04,02,0.00
2013,03,07,04,03,0.00
2013,03,07,04,04,0.00
2013,03,07,04,05,0.00
2013,03,07,04,06,0.00
2013,03,07,04,07,0.00
2013,03,07,04,08,0.00
2013,03,07,04,09,0.00
2013,03,07,04,10,0.00
2013,03,07,04,11,0.00
2013,03,07,04,12,0.00
2013,03,07,04,13,0.00
2013,03,07,04,14,0.00
2013,03,07,04,15,0.00
2013,03,07,04,16,0.00
2013,03,07,04,17,0.00
2013,03,07,04,18,0.00
2013,03,07,04,19,0.00
2013,03,07,04,20,0.00
2013,03,07,04,21,0.00
2013,03,07,04,22,0.00
2013,03,07,04,23,0.00
2013,03,07,04,24,0.00
2013,03,07,04,25,0.00
2013,03,07,04,26,0.00
2013,03,07,04,27,0.00
2013,03,07,04,28,0.00
2013,03,07,04,29,0.00
2013,03,07,04,30,0.00
2013,03,07,04,31,0.00
2013,03,07,04,32,0.00
2013,03,07,04,33,0.00
2013,03,07,04,34,0.00
2013,03,07,04,35,0.00
2013,03,07,04,36,0.00
2013,03,07,04,37,0.00
2013,03,07,04,38,0.00
2013,03,07,04,39,0.00
2013,03,07,04,40,0.00
2013,03,07,04,41,0.00
2013,03,07,04,42,0.00
2013,03,07,04,43,0.00
2013,03,07,04,44,0.00
2013,03,07,04,45,0.00
2013,03,07,04,46,0.00
2013,03,07,04,47,0.00
2013,03,07,04,48,0.00
2013,03,07,04,49,0.00
2013,03,07,04,50,0.00
2013,03,07,04,51,0.00
2013,03,07,04,52,0.00
2013,03,07,04,53,0.00
2013,03,07,04,54,0.00
2013,03,07,04,55,0.00
2013,03,07,04,56,0.00
2013,03,07,04,57,0.00
2013,03,07,04,58,0.00
2013,03,07,04,59,0.00
2013,03,07,05,00,0.00
2013,03,07,05,01,0.00
2013,03,07,05,02,0.00
2013,03,07,05,03,0.00
2013,03,07,05,04,0.00
2013,03,07,05,05,0.00
2013,03,07,05,06,0.00
2013,03,07,05,07,0.00
2013,03,07,05,08,0.00
2013,03,07,05,09,0.00
2013,03,07,05,10,0.00
2013,03,07,05,11,0.00
2013,03,07,05,12,0.00
2013,03,07,05,13,0.00
2013,03,07,05,14,0.00
2013,03,07,05,15,0.00
2013,03,07,05,16,0.00
2013,03,07,05,17,0.00
2013,03,07,05,18,0.00
2013,03,07,05,19,0.00
2013,03,07,05,20,0.00
2013,03,07,05,21,0.00
2013,03,07,05,22,0.00
2013,03,07,05,23,0.00
2013,03,07,05,24,0.00
2013,03,07,05,25,0.00
2013,03,07,05,26,0.00
2013,03,07,05,27,0.00
2013,03,07,05,28,0.00
2013,03,07,05,29,0.00
2013,03,07,05,30,0.00
2013,03,07,05,31,0.00
2013,03,07,05,32,0.00
2013,03,07,05,33,0.00
2013,03,07,05,34,0.00
2013,03,07,05,35,0.00
2013,03,07,05,36,0.00
2013,03,07,05,37,0.00
2013,03,07,05,38,0.00
2013,03,07,05,39,0.00
2013,03,07,05,40,0.00
2013,03,07,05,41,0.00
2013,03,07,05,42,0.00
2013,03,07,05,43,0.00
2013,03,07,05,44,0.00
2013,03,07,05,45,0.00
2013,03,07,05,46,0.00
2013,03,07,05,47,0.00
2013,03,07,05,48,0.00
2013,03,07,05,49,0.00
2013,03,07,05,50,0.00
2013,03,07,05,51,0.00
2013,03,07,05,52,0.00
2013,03,07,05,53,0.00
2013,03,07,05,54,0.00
2013,03,07,05,55,0.00
2013,03,07,05,56,0.00
2013,03,07,05,57,0.00
2013,03,07,05,58,0.00
2013,03,07,05,59,0.00
2013,03,07,06,00,0.00
2013,03,07,06,01,0.00
2013,03,07,06,02,0.00
2013,03,07,06,03,0.00
2013,03,07,06,04,0.00
2013,03,07,06,05,0.00
2013,03,07,06,06,0.00
2013,03,07,06,07,0.00
2013,03,07,06,08,0.00
2013,03,07,06,09,0.00
2013,03,07,06,10,0.00
2013,03,07,06,11,0.00
2013,03,07,06,12,0.00
2013,03,07,06,13,0.00
2013,03,07,06,14,0.00
2013,03,07,06,15,0.00
2013,03,07,06,16,0.00
2013,03,07,06,17,0.00
2013,03,07,06,18,0.00
2013,03,07,06,19,0.00
2013,03,07,06,20,0.00
2013,03,07,06,21,0.00
2013,03,07,06,22,0.00
2013,03,07,06,23,0.00
2013,03,07,06,24,0.00
2013,03,07,06,25,0.00
2013,03,07,06,26,0.00
2013,03,07,06,27,0.00
2013,03,07,06,28,0.00
2013,03,07,06,29,0.00
2013,03,07,06,30,0.00
2013,03,07,06,31,0.00
2013,03,07,06,32,0.00
2013,03,07,06,33,0.00
2013,03,07,06,34,0.00
2013,03,07,06,35,0.00
2013,03,07,06,36,0.00
2013,03,07,06,37,0.00
2013,03,07,06,38,0.00
2013,03,07,06,39,0.00
2013,03,07,06,40,0.00
2013,03,07,06,41,0.00
2013,03,07,06,42,0.00
2013,03,07,06,43,0.00
2013,03,07,06,44,0.00
2013,03,07,06,45,0.00
2013,03,07,06,46,0.00
2013,03,07,06,47,0.00
2013,03,07,06,48,4.80
2013,03,07,06,49,5.00
2013,03,07,06,50,5.60
2013,03,07,06,51,7.00
2013,03,07,06,52,7.00
2013,03,07,06,53,8.20
2013,03,07,06,54,10.40
2013,03,07,06,55,11.80
2013,03,07,06,56,12.00
2013,03,07,06,57,14.30
2013,03,07,06,58,16.40
2013,03,07,06,59,18.30
2013,03,07,07,00,19.00
2013,03,07,07,01,20.00
2013,03,07,07,02,22.30
2013,03,07,07,03,24.50
2013,03,07,07,04,25.00
2013,03,07,07,05,26.10
2013,03,07,07,06,28.40
2013,03,07,07,07,30.60
2013,03,07,07,08,32.00
2013,03,07,07,09,32.50
2013,03,07,07,10,33.00
2013,03,07,07,11,34.30
2013,03,07,07,12,35.00
2013,03,07,07,13,36.80
2013,03,07,07,14,39.00
2013,03,07,07,15,39.00
2013,03,07,07,16,39.30
2013,03,07,07,17,40.00
2013,03,07,07,18,41.00
2013,03,07,07,19,42.00
2013,03,07,07,20,43.40
2013,03,07,07,21,45.60
2013,03,07,07,22,46.90
2013,03,07,07,23,47.00
2013,03,07,07,24,47.00
2013,03,07,07,25,46.70
2013,03,07,07,26,46.00
2013,03,07,07,27,46.00
2013,03,07,07,28,46.00
2013,03,07,07,29,46.00
2013,03,07,07,30,46.90
2013,03,07,07,31,49.00
2013,03,07,07,32,49.40
2013,03,07,07,33,51.60
2013,03,07,07,34,53.50
2013,03,07,07,35,55.00
2013,03,07,07,36,57.20
2013,03,07,07,37,58.00
2013,03,07,07,38,58.00
2013,03,07,07,39,60.00
2013,03,07,07,40,62.00
2013,03,07,07,41,62.20
2013,03,07,07,42,63.00
2013,03,07,07,43,62.50
2013,03,07,07,44,59.80
2013,03,07,07,45,55.60
2013,03,07,07,46,53.30
2013,03,07,07,47,49.60
2013,03,07,07,48,47.00
2013,03,07,07,49,46.00
2013,03,07,07,50,45.50
2013,03,07,07,51,44.00
2013,03,07,07,52,43.10
2013,03,07,07,53,40.90
2013,03,07,07,54,39.30
2013,03,07,07,55,37.50
2013,03,07,07,56,35.20
2013,03,07,07,57,32.90
2013,03,07,07,58,31.10
2013,03,07,07,59,27.40
2013,03,07,08,00,26.00
2013,03,07,08,01,25.50
2013,03,07,08,02,25.00
2013,03,07,08,03,25.70
2013,03,07,08,04,26.00
2013,03,07,08,05,26.00
2013,03,07,08,06,26.30
2013,03,07,08,07,28.00
2013,03,07,08,08,28.00
2013,03,07,08,09,28.00
2013,03,07,08,10,29.10
2013,03,07,08,11,30.00
2013,03,07,08,12,30.00
2013,03,07,08,13,30.00
2013,03,07,08,14,30.00
2013,03,07,08,15,30.40
2013,03,07,08,16,32.30
2013,03,07,08,17,34.70
2013,03,07,08,18,38.50
2013,03,07,08,19,41.20
2013,03,07,08,20,44.90
2013,03,07,08,21,48.50
2013,03,07,08,22,49.00
2013,03,07,08,23,51.30
2013,03,07,08,24,53.00
2013,03,07,08,25,52.30
2013,03,07,08,26,50.10
2013,03,07,08,27,48.00
2013,03,07,08,28,46.40
2013,03,07,08,29,44.50
2013,03,07,08,30,42.30
2013,03,07,08,31,42.00
2013,03,07,08,32,42.00
2013,03,07,08,33,42.00
2013,03,07,08,34,42.70
2013,03,07,08,35,44.00
2013,03,07,08,36,44.00
2013,03,07,08,37,44.00
2013,03,07,08,38,44.00
2013,03,07,08,39,42.20
2013,03,07,08,40,41.80
2013,03,07,08,41,39.80
2013,03,07,08,42,38.40
2013,03,07,08,43,36.10
2013,03,07,08,44,33.40
2013,03,07,08,45,30.70
2013,03,07,08,46,28.50
2013,03,07,08,47,26.30
2013,03,07,08,48,26.00
2013,03,07,08,49,25.00
2013,03,07,08,50,24.50
2013,03,07,08,51,23.00
2013,03,07,08,52,23.00
2013,03,07,08,53,23.00
2013,03,07,08,54,23.00
2013,03,07,08,55,23.00
2013,03,07,08,56,23.00
2013,03,07,08,57,23.00
2013,03,07,08,58,23.00
2013,03,07,08,59,23.00
2013,03,07,09,00,23.00
2013,03,07,09,01,23.00
2013,03,07,09,02,24.20
2013,03,07,09,03,25.00
2013,03,07,09,04,25.00
2013,03,07,09,05,25.90
2013,03,07,09,06,28.40
2013,03,07,09,07,32.20
2013,03,07,09,08,34.30
2013,03,07,09,09,37.80
2013,03,07,09,10,40.50
2013,03,07,09,11,44.50
2013,03,07,09,12,48.20
2013,03,07,09,13,52.40
2013,03,07,09,14,54.00
2013,03,07,09,15,56.60
2013,03,07,09,16,60.50
2013,03,07,09,17,62.40
2013,03,07,09,18,63.90
2013,03,07,09,19,67.20
2013,03,07,09,20,69.70
2013,03,07,09,21,73.00
2013,03,07,09,22,74.00
2013,03,07,09,23,76.10
2013,03,07,09,24,77.80
2013,03,07,09,25,81.90
2013,03,07,09,26,86.30
2013,03,07,09,27,93.50
2013,03,07,09,28,100.00
2013,03,07,09,29,104.10
2013,03,07,09,30,108.30
2013,03,07,09,31,110.80
2013,03,07,09,32,111.00
2013,03,07,09,33,111.00
2013,03,07,09,34,111.00
2013,03,07,09,35,111.00
2013,03,07,09,36,111.00
2013,03,07,09,37,109.70
2013,03,07,09,38,109.00
2013,03,07,09,39,107.20
2013,03,07,09,40,105.00
2013,03,07,09,41,104.80
2013,03,07,09,42,103.50
2013,03,07,09,43,101.20
2013,03,07,09,44,99.00
2013,03,07,09,45,97.40
2013,03,07,09,46,95.60
2013,03,07,09,47,93.30
2013,03,07,09,48,91.10
2013,03,07,09,49,89.40
2013,03,07,09,50,85.60
2013,03,07,09,51,83.10
2013,03,07,09,52,80.00
2013,03,07,09,53,77.90
2013,03,07,09,54,76.40
2013,03,07,09,55,74.50
2013,03,07,09,56,72.30
2013,03,07,09,57,71.90
2013,03,07,09,58,69.80
2013,03,07,09,59,69.00
2013,03,07,10,00,69.00
2013,03,07,10,01,69.00
2013,03,07,10,02,69.60
2013,03,07,10,03,71.30
2013,03,07,10,04,75.80
2013,03,07,10,05,82.10
2013,03,07,10,06,88.90
2013,03,07,10,07,98.30
2013,03,07,10,08,107.00
2013,03,07,10,09,116.00
2013,03,07,10,10,125.50
2013,03,07,10,11,135.40
2013,03,07,10,12,145.30
2013,03,07,10,13,156.00
2013,03,07,10,14,168.40
2013,03,07,10,15,179.20
2013,03,07,10,16,188.10
2013,03,07,10,17,197.30
2013,03,07,10,18,206.30
2013,03,07,10,19,215.70
2013,03,07,10,20,226.70
2013,03,07,10,21,239.80
2013,03,07,10,22,257.50
2013,03,07,10,23,278.70
2013,03,07,10,24,299.70
2013,03,07,10,25,323.10
2013,03,07,10,26,305.20
2013,03,07,10,27,305.90
2013,03,07,10,28,304.30
2013,03,07,10,29,311.80
2013,03,07,10,30,348.80
2013,03,07,10,31,338.10
2013,03,07,10,32,322.70
2013,03,07,10,33,306.10
2013,03,07,10,34,292.00
2013,03,07,10,35,284.40
2013,03,07,10,36,281.00
2013,03,07,10,37,279.80
2013,03,07,10,38,275.40
2013,03,07,10,39,271.40
2013,03,07,10,40,264.50
2013,03,07,10,41,256.10
2013,03,07,10,42,251.00
2013,03,07,10,43,251.00
2013,03,07,10,44,253.70
2013,03,07,10,45,261.00
2013,03,07,10,46,268.70
2013,03,07,10,47,275.00
2013,03,07,10,48,284.10
2013,03,07,10,49,293.70
2013,03,07,10,50,306.30
2013,03,07,10,51,294.00
2013,03,07,10,52,292.00
2013,03,07,10,53,293.00
2013,03,07,10,54,294.00
2013,03,07,10,55,294.00
2013,03,07,10,56,294.80
2013,03,07,10,57,296.90
2013,03,07,10,58,293.70
2013,03,07,10,59,292.00
2013,03,07,11,00,292.70
2013,03,07,11,01,294.00
2013,03,07,11,02,295.50
2013,03,07,11,03,295.10
2013,03,07,11,04,294.80
2013,03,07,11,05,307.00
2013,03,07,11,06,320.90
2013,03,07,11,07,329.20
2013,03,07,11,08,330.00
2013,03,07,11,09,329.60
2013,03,07,11,10,328.00
2013,03,07,11,11,331.20
2013,03,07,11,12,325.40
2013,03,07,11,13,318.80
2013,03,07,11,14,313.50
2013,03,07,11,15,303.40
2013,03,07,11,16,319.00
2013,03,07,11,17,327.10
2013,03,07,11,18,329.90
2013,03,07,11,19,350.50
2013,03,07,11,20,379.50
2013,03,07,11,21,397.20
2013,03,07,11,22,399.00
2013,03,07,11,23,401.50
2013,03,07,11,24,416.40
2013,03,07,11,25,427.60
2013,03,07,11,26,446.60
2013,03,07,11,27,463.50
2013,03,07,11,28,468.60
2013,03,07,11,29,465.50
2013,03,07,11,30,461.60
2013,03,07,11,31,457.40
2013,03,07,11,32,465.30
2013,03,07,11,33,442.80
2013,03,07,11,34,456.30
2013,03,07,11,35,491.80
2013,03,07,11,36,526.00
2013,03,07,11,37,526.00
2013,03,07,11,38,579.90
2013,03,07,11,39,584.40
2013,03,07,11,40,579.20
2013,03,07,11,41,589.30
2013,03,07,11,42,555.20
2013,03,07,11,43,619.00
2013,03,07,11,44,553.80
2013,03,07,11,45,467.90
2013,03,07,11,46,442.30
2013,03,07,11,47,426.90
2013,03,07,11,48,422.30
2013,03,07,11,49,433.00
2013,03,07,11,50,463.60
2013,03,07,11,51,492.00
2013,03,07,11,52,523.30
2013,03,07,11,53,492.00
2013,03,07,11,54,483.00
2013,03,07,11,55,466.20
2013,03,07,11,56,447.70
2013,03,07,11,57,441.20
2013,03,07,11,58,453.40
2013,03,07,11,59,469.80
2013,03,07,12,00,482.00
2013,03,07,12,01,476.40
2013,03,07,12,02,459.30
2013,03,07,12,03,441.60
2013,03,07,12,04,429.20
2013,03,07,12,05,408.10
2013,03,07,12,06,391.60
2013,03,07,12,07,367.90
2013,03,07,12,08,346.50
2013,03,07,12,09,334.50
2013,03,07,12,10,331.00
2013,03,07,12,11,331.20
2013,03,07,12,12,336.50
2013,03,07,12,13,345.90
2013,03,07,12,14,371.40
2013,03,07,12,15,361.10
2013,03,07,12,16,347.40
2013,03,07,12,17,320.80
2013,03,07,12,18,307.00
2013,03,07,12,19,301.00
2013,03,07,12,20,291.10
2013,03,07,12,21,279.80
2013,03,07,12,22,272.10
2013,03,07,12,23,270.70
2013,03,07,12,24,265.90
2013,03,07,12,25,275.20
2013,03,07,12,26,323.00
2013,03,07,12,27,388.00
2013,03,07,12,28,308.70
2013,03,07,12,29,247.70
2013,03,07,12,30,240.80
2013,03,07,12,31,246.70
2013,03,07,12,32,279.40
2013,03,07,12,33,305.60
2013,03,07,12,34,348.60
2013,03,07,12,35,390.00
2013,03,07,12,36,458.50
2013,03,07,12,37,531.30
2013,03,07,12,38,502.50
2013,03,07,12,39,441.00
2013,03,07,12,40,434.00
2013,03,07,12,41,443.00
2013,03,07,12,42,443.00
2013,03,07,12,43,459.10
2013,03,07,12,44,491.10
2013,03,07,12,45,534.70
2013,03,07,12,46,568.00
2013,03,07,12,47,707.40
2013,03,07,12,48,835.20
2013,03,07,12,49,851.00
2013,03,07,12,50,851.00
2013,03,07,12,51,746.60
2013,03,07,12,52,490.80
2013,03,07,12,53,471.00
2013,03,07,12,54,471.00
2013,03,07,12,55,471.00
2013,03,07,12,56,410.30
2013,03,07,12,57,480.50
2013,03,07,12,58,518.60
2013,03,07,12,59,812.00
2013,03,07,13,00,847.10
2013,03,07,13,01,831.00
2013,03,07,13,02,826.00
2013,03,07,13,03,778.60
2013,03,07,13,04,709.60
2013,03,07,13,05,689.00
2013,03,07,13,06,823.00
2013,03,07,13,07,838.90
2013,03,07,13,08,844.50
2013,03,07,13,09,846.00
2013,03,07,13,10,847.30
2013,03,07,13,11,849.00
2013,03,07,13,12,849.00
2013,03,07,13,13,853.00
2013,03,07,13,14,853.10
2013,03,07,13,15,855.80
2013,03,07,13,16,853.00
2013,03,07,13,17,851.80
2013,03,07,13,18,868.00
2013,03,07,13,19,895.00
2013,03,07,13,20,918.70
2013,03,07,13,21,938.60
2013,03,07,13,22,955.20
2013,03,07,13,23,964.30
2013,03,07,13,24,970.50
2013,03,07,13,25,974.00
2013,03,07,13,26,976.20
2013,03,07,13,27,956.20
2013,03,07,13,28,900.20
2013,03,07,13,29,879.00
2013,03,07,13,30,735.00
2013,03,07,13,31,687.00
2013,03,07,13,32,698.50
2013,03,07,13,33,918.00
2013,03,07,13,34,918.00
2013,03,07,13,35,929.60
2013,03,07,13,36,951.30
2013,03,07,13,37,925.40
2013,03,07,13,38,909.30
2013,03,07,13,39,917.30
2013,03,07,13,40,919.00
2013,03,07,13,41,945.00
2013,03,07,13,42,952.80
2013,03,07,13,43,930.10
2013,03,07,13,44,905.60
2013,03,07,13,45,935.00
2013,03,07,13,46,935.00
2013,03,07,13,47,935.00
2013,03,07,13,48,822.50
2013,03,07,13,49,801.20
2013,03,07,13,50,911.00
2013,03,07,13,51,897.20
2013,03,07,13,52,853.00
2013,03,07,13,53,853.00
2013,03,07,13,54,840.90
2013,03,07,13,55,830.30
2013,03,07,13,56,830.80
2013,03,07,13,57,815.70
2013,03,07,13,58,814.00
2013,03,07,13,59,814.00
2013,03,07,14,00,814.00
2013,03,07,14,01,814.80
2013,03,07,14,02,780.50
2013,03,07,14,03,745.00
2013,03,07,14,04,745.00
2013,03,07,14,05,745.00
2013,03,07,14,06,782.30
2013,03,07,14,07,710.80
2013,03,07,14,08,760.50
2013,03,07,14,09,739.40
2013,03,07,14,10,721.50
2013,03,07,14,11,709.20
2013,03,07,14,12,696.60
2013,03,07,14,13,709.30
2013,03,07,14,14,724.50
2013,03,07,14,15,731.40
2013,03,07,14,16,745.00
2013,03,07,14,17,745.00
2013,03,07,14,18,677.70
2013,03,07,14,19,506.30
2013,03,07,14,20,466.00
2013,03,07,14,21,466.00
2013,03,07,14,22,412.40
2013,03,07,14,23,319.80
2013,03,07,14,24,296.00
2013,03,07,14,25,283.20
2013,03,07,14,26,266.30
2013,03,07,14,27,270.20
2013,03,07,14,28,319.00
2013,03,07,14,29,332.10
2013,03,07,14,30,315.00
2013,03,07,14,31,500.30
2013,03,07,14,32,533.00
2013,03,07,14,33,533.00
2013,03,07,14,34,571.50
2013,03,07,14,35,680.90
2013,03,07,14,36,671.00
2013,03,07,14,37,589.90
2013,03,07,14,38,529.00
2013,03,07,14,39,529.00
2013,03,07,14,40,551.30
2013,03,07,14,41,566.70
2013,03,07,14,42,601.80
2013,03,07,14,43,614.40
2013,03,07,14,44,600.40
2013,03,07,14,45,582.00
2013,03,07,14,46,570.80
2013,03,07,14,47,568.00
2013,03,07,14,48,570.40
2013,03,07,14,49,576.40
2013,03,07,14,50,577.70
2013,03,07,14,51,584.20
2013,03,07,14,52,592.50
2013,03,07,14,53,591.30
2013,03,07,14,54,584.40
2013,03,07,14,55,584.00
2013,03,07,14,56,302.10
2013,03,07,14,57,191.90
2013,03,07,14,58,196.90
2013,03,07,14,59,366.90
2013,03,07,15,00,387.40
2013,03,07,15,01,434.40
2013,03,07,15,02,422.00
2013,03,07,15,03,495.00
2013,03,07,15,04,540.00
2013,03,07,15,05,540.00
2013,03,07,15,06,498.40
2013,03,07,15,07,494.00
2013,03,07,15,08,505.00
2013,03,07,15,09,513.00
2013,03,07,15,10,434.40
2013,03,07,15,11,411.00
2013,03,07,15,12,411.00
2013,03,07,15,13,411.00
2013,03,07,15,14,455.50
2013,03,07,15,15,466.00
2013,03,07,15,16,419.50
2013,03,07,15,17,156.50
2013,03,07,15,18,153.80
2013,03,07,15,19,126.20
2013,03,07,15,20,111.40
2013,03,07,15,21,133.60
2013,03,07,15,22,134.10
2013,03,07,15,23,128.60
2013,03,07,15,24,110.30
2013,03,07,15,25,95.60
2013,03,07,15,26,99.20
2013,03,07,15,27,109.20
2013,03,07,15,28,124.00
2013,03,07,15,29,133.00
2013,03,07,15,30,137.00
2013,03,07,15,31,137.00
2013,03,07,15,32,138.80
2013,03,07,15,33,142.00
2013,03,07,15,34,140.40
2013,03,07,15,35,134.70
2013,03,07,15,36,132.20
2013,03,07,15,37,127.40
2013,03,07,15,38,123.80
2013,03,07,15,39,123.00
2013,03,07,15,40,123.00
2013,03,07,15,41,123.10
2013,03,07,15,42,125.40
2013,03,07,15,43,129.00
2013,03,07,15,44,131.30
2013,03,07,15,45,130.00
2013,03,07,15,46,130.00
2013,03,07,15,47,128.60
2013,03,07,15,48,128.00
2013,03,07,15,49,125.30
2013,03,07,15,50,125.20
2013,03,07,15,51,130.00
2013,03,07,15,52,144.10
2013,03,07,15,53,152.00
2013,03,07,15,54,157.00
2013,03,07,15,55,150.80
2013,03,07,15,56,127.40
2013,03,07,15,57,120.00
2013,03,07,15,58,113.20
2013,03,07,15,59,108.80
2013,03,07,16,00,106.30
2013,03,07,16,01,103.30
2013,03,07,16,02,100.30
2013,03,07,16,03,96.30
2013,03,07,16,04,93.80
2013,03,07,16,05,93.00
2013,03,07,16,06,94.70
2013,03,07,16,07,95.20
2013,03,07,16,08,97.60
2013,03,07,16,09,101.50
2013,03,07,16,10,105.00
2013,03,07,16,11,105.00
2013,03,07,16,12,100.80
2013,03,07,16,13,92.30
2013,03,07,16,14,85.10
2013,03,07,16,15,79.50
2013,03,07,16,16,73.80
2013,03,07,16,17,72.00
2013,03,07,16,18,72.00
2013,03,07,16,19,72.90
2013,03,07,16,20,75.10
2013,03,07,16,21,76.00
2013,03,07,16,22,76.00
2013,03,07,16,23,76.00
2013,03,07,16,24,74.00
2013,03,07,16,25,72.00
2013,03,07,16,26,71.40
2013,03,07,16,27,68.20
2013,03,07,16,28,64.10
2013,03,07,16,29,62.40
2013,03,07,16,30,64.00
2013,03,07,16,31,66.60
2013,03,07,16,32,67.00
2013,03,07,16,33,61.40
2013,03,07,16,34,56.00
2013,03,07,16,35,57.20
2013,03,07,16,36,60.00
2013,03,07,16,37,61.10
2013,03,07,16,38,62.60
2013,03,07,16,39,64.40
2013,03,07,16,40,66.60
2013,03,07,16,41,66.80
2013,03,07,16,42,62.50
2013,03,07,16,43,60.00
2013,03,07,16,44,60.00
2013,03,07,16,45,60.00
2013,03,07,16,46,60.00
2013,03,07,16,47,58.80
2013,03,07,16,48,56.50
2013,03,07,16,49,53.40
2013,03,07,16,50,52.80
2013,03,07,16,51,51.00
2013,03,07,16,52,51.00
2013,03,07,16,53,49.40
2013,03,07,16,54,45.50
2013,03,07,16,55,42.90
2013,03,07,16,56,40.60
2013,03,07,16,57,40.00
2013,03,07,16,58,40.00
2013,03,07,16,59,39.00
2013,03,07,17,00,39.00
2013,03,07,17,01,40.00
2013,03,07,17,02,42.90
2013,03,07,17,03,45.70
2013,03,07,17,04,49.50
2013,03,07,17,05,53.10
2013,03,07,17,06,55.70
2013,03,07,17,07,54.00
2013,03,07,17,08,52.40
2013,03,07,17,09,48.40
2013,03,07,17,10,46.00
2013,03,07,17,11,44.00
2013,03,07,17,12,44.00
2013,03,07,17,13,42.60
2013,03,07,17,14,39.60
2013,03,07,17,15,37.20
2013,03,07,17,16,32.90
2013,03,07,17,17,31.50
2013,03,07,17,18,29.40
2013,03,07,17,19,27.20
2013,03,07,17,20,25.50
2013,03,07,17,21,23.80